Powrót do katalogu

DELTA 1 DEB

LostSSO
NORAD 42088·DEBRIS·🇺🇸 United States

Wystrzelony Dec 15, 1968 z Vandenberg Space Force Base

Loading…

Następne Przeloty (najbliższe 24 godziny)

TLE

NieaktualneSource: Space-Track

Epoka: May 14, 2025, 01:42 UTC

1 42088U 68114Q   25134.07111126 -.00000022  00000-0  14912-3 0  9991
2 42088 101.6626  85.5613 0020480 334.2851  25.7199 12.48862173523582

Śledź DELTA 1 DEB w czasie rzeczywistym z AllMySat

Download on the App Store